الصفحة الرئيسية
METAR-TAF:

METAR-TAF

مطار :

Rhino Camp, ناميبيا

دائرة عرض: 20-01-28S, خط طول: 13-50-45E, ارتفاع: 756 متر

مراقبة الطقس الحالي

تاريخ ووقت الإصدار 2ساعات و 58 دقيقة قبل الساعة 18:00UTC
رياح هادئة
درجة الحرارة 32°درجة مئوية
الرطوبة 32%
ضغط 1014 hPa
الرؤية 10 كم أو أكثر
الغيوم لا تقل 1500 م ولا وجود لمزنة ركامية السحاب الأسود

METAR: FYRN 131800Z 00000KT CAVOK 32/13 Q1014

زمن: 22:58 (20:58 UTC)


TAF: مفقودة

أرصاد الطقس والتوقعات من أكثر من 4000 مطار (تقارير الطقس للمطار METAR والتنبؤ بالطقس بالمطارTAF).

المحطات المتاحة هي النقط الصفراء والحمراء على الخريطة.

حرك المؤشر فوق النقطة لمعرفة اسم المحطة.

ثم انقر لمعرفة أرصاد وتوقعات الطقس.

لتغيير الخارطة: اضغط على الأزرار الخضراء مع رمز الصليب الأسود للتكبير. على الزر الأخضر مع شرطة للتصغير، أو على الأسهم الخضراء للخرائط المجاورة.


METAR-TAF: